Location: ????????
(55.0808°N, 38.5463°E)
Time: 02:10:17
(UTC+00:00)

Nimbus 3 Rocket - Pass Details

Date: 28 September 2024
Orbit: 1072 x 1131 km, 99.9° (Epoch: 03 October)

Event Time Altitude Azimuth Distance (km) Brightness Sun altitude
Rises 00:00:46 0° 18° (NNE) 3,909 9.0 -27.5°
Reaches altitude 10° 00:03:54 10° 4° (N) 2,941 8.0 -27.2°
Maximum altitude 00:08:43 22° 317° (NW) 2,165 6.7 -26.6°
Enters shadow 00:10:07 21° 300° (WNW) 2,236 6.7 -26.5°
